FW8019 Weather Reports


Display with metric or nautical units.
time (UTC)temp
F
wind
direction
speed
MPH
gust
MPH
rain 1hr
in
rain 24hr
in
rain mn
in
humidity
%
barometer
mb
20260509150127 73 170 0.0 0.0 0.00 0.00 0.00 92 1013.2
20260509145623 73 170 0.0 0.0 0.00 0.00 0.00 92 1013.1
20260509145118 73 170 0.0 0.0 0.00 0.00 0.00 92 1013.1
20260509144615 73 170 0.0 0.0 0.00 0.00 0.00 92 1012.9
20260509144112 73 169 0.0 0.0 0.00 0.00 0.00 92 1013.0
20260509143609 73 180 0.0 0.0 0.00 0.00 0.00 91 1013.1
20260509143107 73 180 0.0 0.0 0.00 0.00 0.00 91 1012.9
20260509142602 74 165 0.0 0.0 0.00 0.00 0.00 92 1012.6
20260509142058 73 166 0.0 0.0 0.00 0.00 0.00 91 1012.7
20260509141555 73 148 0.0 0.0 0.00 0.00 0.00 91 1012.7
20260509141051 73 149 0.0 0.0 0.00 0.00 0.00 91 1012.6
20260509140548 73 149 0.0 0.0 0.00 0.00 0.00 91 1012.5
20260509140046 73 149 0.0 0.0 0.00 0.00 0.00 91 1012.6
20260509135543 73 149 0.0 0.0 0.00 0.00 0.00 91 1012.5
20260509135041 73 149 0.0 0.0 0.00 0.00 0.00 91 1012.4
20260509134538 73 149 0.0 0.0 0.00 0.00 0.00 91 1012.5
20260509134035 73 149 0.0 0.0 0.00 0.00 0.00 91 1012.6
20260509133532 73 149 0.0 0.0 0.00 0.00 0.00 91 1012.6
20260509133030 72 149 0.0 0.0 0.00 0.00 0.00 91 1012.6
20260509132528 73 149 0.0 0.0 0.00 0.00 0.00 90 1012.8
20260509132026 72 149 0.0 0.0 0.00 0.00 0.00 90 1012.7
20260509131522 72 150 0.0 0.0 0.00 0.00 0.00 90 1012.9
20260509131019 72 150 0.0 0.0 0.00 0.00 0.00 91 1012.8
20260509130514 72 150 0.0 0.0 0.00 0.00 0.00 91 1012.8
20260509130011 72 150 0.0 0.0 0.00 0.00 0.00 91 1012.7
20260509125508 72 150 0.0 0.0 0.00 0.00 0.00 91 1012.9
20260509125004 72 150 0.0 0.0 0.00 0.00 0.00 91 1012.8
20260509124501 71 156 0.0 0.0 0.00 0.00 0.00 91 1013.0
20260509123958 71 138 0.0 0.0 0.00 0.00 0.00 92 1012.9
20260509123456 71 173 0.0 0.0 0.00 0.00 0.00 93 1013.1
20260509122951 70 153 0.0 0.0 0.00 0.00 0.00 94 1013.1
20260509122448 70 159 0.0 0.0 0.00 0.00 0.00 96 1012.7
20260509121945 69 168 0.0 0.0 0.00 0.00 0.00 97 1013.0
20260509121442 69 164 0.0 0.0 0.00 0.00 0.00 98 1013.0
20260509120940 68 161 0.0 0.0 0.00 0.00 0.00 98 1012.8
20260509120438 68 166 0.0 0.0 0.00 0.00 0.00 99 1012.7
20260509115935 67 186 0.0 0.0 0.00 0.00 0.00 99 1012.8
20260509115432 67 186 0.0 0.0 0.00 0.00 0.00 99 1012.7
20260509114930 66 186 0.0 0.0 0.00 0.00 0.00 99 1012.7
20260509114428 66 186 0.0 0.0 0.00 0.00 0.00 99 1012.6
20260509113928 66 186 0.0 0.0 0.00 0.00 0.00 99 1012.5
20260509113424 66 186 0.0 0.0 0.00 0.00 0.00 99 1012.5
20260509112921 66 186 0.0 0.0 0.00 0.00 0.00 99 1012.3
20260509112419 66 186 0.0 0.0 0.00 0.00 0.00 99 1012.4
20260509111915 65 186 0.0 0.0 0.00 0.00 0.00 99 1012.5
20260509111412 65 186 0.0 0.0 0.00 0.00 0.00 99 1012.4
20260509110910 65 186 0.0 0.0 0.00 0.00 0.00 99 1012.3
20260509110405 65 185 0.0 0.0 0.00 0.00 0.00 99 1012.2
20260509105904 65 185 0.0 0.0 0.00 0.00 0.00 98 1012.3
20260509105402 65 185 0.0 0.0 0.00 0.00 0.00 98 1012.2
20260509104859 64 185 0.0 0.0 0.00 0.00 0.00 98 1012.3
20260509104355 64 185 0.0 0.0 0.00 0.00 0.00 98 1012.1
20260509103853 65 185 0.0 0.0 0.00 0.00 0.00 98 1011.9
20260509103350 65 185 0.0 0.0 0.00 0.00 0.00 98 1011.9
20260509102849 65 185 0.0 0.0 0.00 0.00 0.00 98 1011.7
20260509102346 65 184 0.0 0.0 0.00 0.00 0.00 98 1011.8
20260509101841 65 185 0.0 0.0 0.00 0.00 0.00 98 1011.9
20260509101337 65 185 0.0 0.0 0.00 0.00 0.00 98 1011.9
20260509100836 65 185 0.0 0.0 0.00 0.00 0.00 98 1011.6
20260509100333 65 185 0.0 0.0 0.00 0.00 0.00 97 1011.9
20260509095829 65 185 0.0 0.0 0.00 0.00 0.00 97 1011.7
20260509095326 65 185 0.0 0.0 0.00 0.00 0.00 97 1012.0
20260509094824 65 185 0.0 0.0 0.00 0.00 0.00 97 1011.7
20260509094320 65 185 0.0 0.0 0.00 0.00 0.00 97 1011.9
20260509093818 65 185 0.0 0.0 0.00 0.00 0.00 97 1011.8
20260509093315 65 185 0.0 0.0 0.00 0.00 0.00 97 1011.9
20260509092814 65 185 0.0 0.0 0.00 0.00 0.00 97 1011.9
20260509092311 66 185 0.0 0.0 0.00 0.00 0.00 96 1012.1
20260509091809 66 185 0.0 0.0 0.00 0.00 0.00 96 1011.8
20260509091305 66 185 0.0 0.0 0.00 0.00 0.00 96 1012.3
20260509090803 66 185 0.0 0.0 0.00 0.00 0.00 96 1012.0
20260509090259 66 185 0.0 0.0 0.00 0.00 0.00 96 1012.1
20260509085757 66 185 0.0 0.0 0.00 0.00 0.00 96 1012.1
20260509085254 66 185 0.0 0.0 0.00 0.00 0.00 96 1012.3
20260509084751 66 185 0.0 0.0 0.00 0.00 0.00 96 1012.1
20260509084247 66 185 0.0 0.0 0.00 0.00 0.00 96 1012.1
20260509083746 66 185 0.0 0.0 0.00 0.00 0.00 96 1012.3
20260509083242 66 185 0.0 0.0 0.00 0.00 0.00 96 1012.4
20260509082738 66 185 0.0 0.0 0.00 0.00 0.00 96 1012.3
20260509082235 66 185 0.0 0.0 0.00 0.00 0.00 96 1012.3
20260509081732 66 185 0.0 0.0 0.00 0.00 0.00 96 1012.3
20260509081230 66 185 0.0 0.0 0.00 0.00 0.00 95 1012.2
20260509080728 67 185 0.0 0.0 0.00 0.00 0.00 95 1012.4
20260509080225 67 185 0.0 0.0 0.00 0.00 0.00 95 1012.4
20260509075723 67 185 0.0 0.0 0.00 0.00 0.00 95 1012.8
20260509075220 67 185 0.0 0.0 0.00 0.00 0.00 95 1012.5
20260509074717 67 185 0.0 0.0 0.00 0.00 0.00 94 1012.9
20260509074215 67 185 0.0 0.0 0.00 0.00 0.00 94 1013.0
20260509073711 68 185 0.0 0.0 0.00 0.00 0.00 94 1012.7
20260509073207 68 185 0.0 0.0 0.00 0.00 0.00 94 1012.3
20260509072704 68 185 0.0 0.0 0.00 0.00 0.00 94 1012.1
20260509072201 68 185 0.0 0.0 0.00 0.00 0.00 94 1011.7
20260509071657 68 185 0.0 0.0 0.00 0.00 0.00 93 1012.1
20260509071155 68 185 0.0 0.0 0.00 0.00 0.00 93 1012.2
20260509070651 68 186 0.0 0.0 0.00 0.00 0.00 93 1012.1
20260509070148 68 186 0.0 0.0 0.00 0.00 0.00 93 1012.4
20260509065644 68 186 0.0 0.0 0.00 0.00 0.00 93 1012.4
20260509065140 68 186 0.0 0.0 0.00 0.00 0.00 93 1012.7
20260509064637 68 185 0.0 0.0 0.00 0.00 0.00 92 1012.8
20260509064135 68 185 0.0 0.0 0.00 0.00 0.00 92 1012.9
20260509063632 68 185 0.0 0.0 0.00 0.00 0.00 92 1012.9
20260509063128 68 185 0.0 0.0 0.00 0.00 0.00 92 1013.2
20260509062626 68 186 0.0 0.0 0.00 0.00 0.00 92 1013.1
20260509062122 68 184 0.0 0.0 0.00 0.00 0.00 92 1012.8
20260509061619 68 181 0.0 0.0 0.00 0.00 0.00 92 1012.5
20260509061117 68 182 0.0 0.0 0.00 0.00 0.00 91 1012.8
20260509060615 68 182 0.0 0.0 0.00 0.00 0.00 91 1013.3
20260509060110 68 182 0.0 0.0 0.00 0.00 0.00 91 1013.4
20260509055606 68 182 0.0 0.0 0.00 0.00 0.00 90 1013.0
20260509055102 68 182 0.0 0.0 0.00 0.00 0.00 90 1013.2
20260509054559 68 182 0.0 0.0 0.00 0.00 0.00 90 1013.2
20260509054057 67 182 0.0 0.0 0.00 0.00 0.00 90 1013.4
20260509053555 67 181 0.0 0.0 0.00 0.00 0.00 91 1013.4
20260509053051 67 181 0.0 0.0 0.00 0.00 0.00 91 1013.6
20260509052549 67 181 0.0 0.0 0.00 0.00 0.00 91 1014.0
20260509052047 67 181 0.0 0.0 0.00 0.00 0.00 90 1014.0
20260509051545 67 181 0.0 0.0 0.00 0.00 0.00 90 1014.4
20260509051041 67 181 0.0 0.0 0.00 0.00 0.00 89 1014.5
20260509050538 67 181 0.0 0.0 0.00 0.00 0.00 89 1014.5
20260509050035 67 181 0.0 0.0 0.00 0.00 0.00 89 1014.7
20260509045532 67 181 0.0 0.0 0.00 0.00 0.00 89 1014.7
20260509045029 67 181 0.0 0.0 0.00 0.00 0.00 90 1014.7
20260509044527 67 181 0.0 0.0 0.00 0.00 0.00 91 1014.8
20260509044024 66 181 0.0 0.0 0.00 0.00 0.00 91 1014.3
20260509043520 66 181 0.0 0.0 0.00 0.00 0.00 92 1014.2
20260509043016 66 181 0.0 0.0 0.00 0.00 0.00 92 1014.0
20260509042512 66 181 0.0 0.0 0.00 0.00 0.00 92 1014.3
20260509042009 66 181 0.0 0.0 0.00 0.00 0.00 92 1014.5
20260509041505 65 181 0.0 0.0 0.00 0.00 0.00 92 1014.8
20260509041003 65 181 0.0 0.0 0.00 0.00 0.00 92 1014.8
20260509040501 65 181 0.0 0.0 0.00 0.00 0.00 92 1015.3
20260509035957 65 181 0.0 0.0 0.00 0.00 0.00 92 1015.2
20260509035455 65 181 0.0 0.0 0.00 0.00 0.00 91 1015.3
20260509034951 65 181 0.0 0.0 0.00 0.00 0.00 91 1015.4
20260509034449 65 181 0.0 0.0 0.00 0.00 0.00 91 1015.4
20260509033946 65 181 0.0 0.0 0.00 0.00 0.00 91 1015.5
20260509033443 65 181 0.0 0.0 0.00 0.00 0.00 91 1015.3
20260509032939 65 181 0.0 0.0 0.00 0.00 0.00 90 1015.3
20260509032437 65 181 0.0 0.0 0.00 0.00 0.00 90 1015.5
20260509031934 65 181 0.0 0.0 0.00 0.00 0.00 90 1015.4
20260509031432 65 181 0.0 0.0 0.00 0.00 0.00 90 1015.5
20260509030929 65 181 0.0 0.0 0.00 0.00 0.00 90 1015.3
20260509030427 66 181 0.0 0.0 0.00 0.00 0.00 89 1015.4
20260509025924 66 181 0.0 0.0 0.00 0.00 0.00 89 1015.7
20260509025419 66 181 0.0 0.0 0.00 0.00 0.00 88 1015.5
20260509024914 66 181 0.0 0.0 0.00 0.00 0.00 88 1015.4
20260509024411 66 181 0.0 0.0 0.00 0.00 0.00 88 1015.4
20260509023908 66 181 0.0 0.0 0.00 0.00 0.00 87 1015.2
20260509023406 66 181 0.0 0.0 0.00 0.00 0.00 87 1015.1
20260509022902 66 181 0.0 0.0 0.00 0.00 0.00 87 1015.2
20260509022359 66 181 0.0 0.0 0.00 0.00 0.00 87 1015.2
20260509021856 66 181 0.0 0.0 0.00 0.00 0.00 87 1015.1
20260509021353 66 181 0.0 0.0 0.00 0.00 0.00 87 1015.0
20260509020851 66 181 0.0 0.0 0.00 0.00 0.00 86 1015.0
20260509020349 66 181 0.0 0.0 0.00 0.00 0.00 86 1015.1
20260509015846 66 181 0.0 0.0 0.00 0.00 0.00 86 1015.1
20260509015344 66 181 0.0 0.0 0.00 0.00 0.00 86 1015.1
20260509014840 66 181 0.0 0.0 0.00 0.00 0.00 86 1015.0
20260509014337 66 181 0.0 0.0 0.00 0.00 0.00 86 1014.8
20260509013834 66 181 0.0 0.0 0.00 0.00 0.00 86 1015.0
20260509013330 66 181 0.0 0.0 0.00 0.00 0.00 86 1014.9
20260509012826 66 181 0.0 0.0 0.00 0.00 0.00 86 1014.7
20260509012323 66 181 0.0 0.0 0.00 0.00 0.00 86 1014.8
20260509011820 66 181 0.0 0.0 0.00 0.00 0.00 86 1014.8
20260509011312 66 181 0.0 0.0 0.00 0.00 0.00 86 1014.8
20260509010810 66 181 0.0 0.0 0.00 0.00 0.00 85 1015.0
20260509010307 66 181 0.0 0.0 0.00 0.00 0.00 85 1015.2
20260509005804 66 181 0.0 0.0 0.00 0.00 0.00 85 1014.9
20260509005306 66 181 0.0 0.0 0.00 0.00 0.00 84 1014.7
20260509004801 66 181 0.0 0.0 0.00 0.00 0.00 84 1014.5
20260509004258 66 181 0.0 0.0 0.00 0.00 0.00 84 1014.8
20260509003756 66 181 0.0 0.0 0.00 0.00 0.00 84 1014.4
20260509003254 66 181 0.0 0.0 0.00 0.00 0.00 84 1014.4
20260509002751 66 181 0.0 0.0 0.00 0.00 0.00 83 1014.4
20260509002249 66 181 0.0 0.0 0.00 0.00 0.00 83 1014.3
20260509001746 66 181 0.0 0.0 0.00 0.00 0.00 83 1014.4
20260509001241 66 181 0.0 0.0 0.00 0.00 0.00 82 1014.5
20260509000740 67 181 0.0 0.0 0.00 0.00 0.00 82 1014.6
20260509000236 67 182 0.0 0.0 0.00 0.00 0.00 82 1014.4
20260508235734 67 181 0.0 0.0 0.00 0.00 0.00 82 1014.3
20260508235230 67 182 0.0 0.0 0.00 0.00 0.00 82 1014.3
20260508234728 67 181 0.0 0.0 0.00 0.00 0.00 81 1014.1
20260508234224 67 181 0.0 0.0 0.00 0.00 0.00 81 1014.2
20260508233723 67 181 0.0 0.0 0.00 0.00 0.00 81 1014.2
20260508233221 67 181 0.0 0.0 0.00 0.00 0.00 81 1014.0
20260508232718 67 181 0.0 0.0 0.00 0.00 0.00 80 1014.3
20260508232215 67 180 0.0 0.0 0.00 0.00 0.00 80 1014.4
20260508231713 67 180 0.0 0.0 0.00 0.00 0.00 80 1014.5
20260508231209 67 180 0.0 0.0 0.00 0.00 0.00 80 1014.5
20260508230706 67 180 0.0 0.0 0.00 0.00 0.00 79 1014.3
20260508230202 67 180 0.0 0.0 0.00 0.00 0.00 80 1014.3
20260508225700 67 180 0.0 0.0 0.00 0.00 0.00 80 1014.4
20260508225156 67 180 0.0 0.0 0.00 0.00 0.00 80 1014.2
20260508224654 68 179 0.0 0.0 0.00 0.00 0.00 79 1014.2
20260508224151 68 178 0.0 0.0 0.00 0.00 0.00 79 1014.1
20260508223649 68 178 0.0 0.0 0.00 0.00 0.00 79 1014.2
20260508223146 68 172 0.0 0.0 0.00 0.00 0.00 79 1014.0
20260508222643 68 182 0.0 0.0 0.00 0.00 0.00 79 1013.9
20260508222141 68 183 0.0 0.0 0.00 0.00 0.00 78 1014.2
20260508221637 68 182 0.0 0.0 0.00 0.00 0.00 78 1014.3
20260508221132 68 181 0.0 0.0 0.00 0.00 0.00 78 1014.4
20260508220629 68 175 0.0 0.0 0.00 0.00 0.00 77 1014.5
20260508220126 68 164 0.0 0.0 0.00 0.00 0.00 77 1014.1
20260508215622 68 174 0.0 0.0 0.00 0.00 0.00 75 1014.4
20260508215119 68 177 0.0 0.0 0.00 0.00 0.00 77 1014.3
20260508214616 69 177 0.0 0.0 0.00 0.00 0.00 76 1014.3
20260508214113 69 183 0.0 0.0 0.00 0.00 0.00 74 1014.1
20260508213610 69 181 0.0 0.0 0.00 0.00 0.00 75 1014.4
20260508213106 69 182 0.0 0.0 0.00 0.00 0.00 76 1014.4
20260508212603 69 181 0.0 0.0 0.00 0.00 0.00 75 1014.6
20260508212059 69 180 0.0 0.0 0.00 0.00 0.00 76 1014.5
20260508211554 68 177 0.0 0.0 0.00 0.00 0.00 78 1014.6
20260508211051 68 182 0.0 0.0 0.00 0.00 0.00 76 1014.5
20260508210548 68 174 0.0 0.0 0.00 0.00 0.00 77 1014.4
20260508210045 68 180 0.0 0.0 0.00 0.00 0.00 76 1014.3
20260508205542 68 183 0.0 0.0 0.00 0.00 0.00 76 1014.3
20260508205038 68 174 0.0 0.0 0.00 0.00 0.00 75 1014.4
20260508204535 69 171 0.0 0.0 0.00 0.00 0.00 75 1014.4
20260508204031 69 177 0.0 0.0 0.00 0.00 0.00 75 1014.3
20260508203527 69 179 0.0 0.0 0.00 0.00 0.00 74 1014.3
20260508203023 69 124 0.0 0.0 0.00 0.00 0.00 73 1014.2
20260508202520 70 194 0.0 0.0 0.00 0.00 0.00 73 1014.3
20260508202017 69 177 0.0 0.0 0.00 0.00 0.00 74 1014.5
20260508201514 70 222 1.0 2.0 0.00 0.00 0.00 73 1014.8
20260508201011 70 200 0.0 1.0 0.00 0.00 0.00 73 1014.7
20260508200508 70 169 1.0 1.0 0.00 0.00 0.00 72 1014.9
20260508200003 70 191 1.0 1.0 0.00 0.00 0.00 69 1014.9
20260508195500 71 187 1.0 1.0 0.00 0.00 0.00 67 1014.7
20260508194956 72 190 1.0 2.0 0.00 0.00 0.00 68 1015.1
20260508194454 72 199 1.0 2.0 0.00 0.00 0.00 68 1015.3
20260508193950 73 180 1.0 2.0 0.00 0.00 0.00 68 1015.2
20260508193447 73 186 3.0 3.0 0.00 0.00 0.00 67 1014.9
20260508192943 72 188 1.0 1.0 0.00 0.00 0.00 67 1014.9
20260508192440 71 203 2.0 2.0 0.00 0.00 0.00 68 1014.9
20260508191937 72 174 0.0 1.0 0.00 0.00 0.00 66 1015.2
20260508191435 72 184 0.0 0.0 0.00 0.00 0.00 64 1015.2
20260508190931 72 185 0.0 1.0 0.00 0.00 0.00 66 1015.2
20260508190429 72 185 0.0 1.0 0.00 0.00 0.00 68 1015.1
20260508185925 73 220 2.0 2.0 0.00 0.00 0.00 64 1015.2
20260508185422 73 187 0.0 1.0 0.00 0.00 0.00 64 1015.3
20260508184920 73 192 2.0 2.0 0.00 0.00 0.00 65 1015.1
20260508184417 71 206 2.0 2.0 0.00 0.00 0.00 68 1015.4
20260508183913 71 183 1.0 2.0 0.00 0.00 0.00 69 1015.2
20260508183410 73 210 2.0 2.0 0.00 0.00 0.00 65 1015.2
20260508182905 74 187 1.0 1.0 0.00 0.00 0.00 63 1015.1
20260508182403 73 196 0.0 0.0 0.00 0.00 0.00 64 1015.4
20260508181858 73 208 2.0 2.0 0.00 0.00 0.00 65 1015.7
20260508181355 73 185 1.0 1.0 0.00 0.00 0.00 62 1015.7
20260508180852 73 186 1.0 1.0 0.00 0.00 0.00 63 1015.7
20260508180349 72 182 1.0 1.0 0.00 0.00 0.00 65 1015.6
20260508175845 73 203 2.0 2.0 0.00 0.00 0.00 63 1015.7
20260508175341 73 184 2.0 2.0 0.00 0.00 0.00 63 1015.7
20260508174840 73 187 1.0 1.0 0.00 0.00 0.00 62 1015.9
20260508174337 74 192 1.0 1.0 0.00 0.00 0.00 61 1015.6
20260508173833 74 193 1.0 1.0 0.00 0.00 0.00 60 1015.8
20260508173331 73 201 3.0 5.0 0.00 0.00 0.00 60 1015.9
20260508172826 73 196 1.0 2.0 0.00 0.00 0.00 61 1016.0
20260508172323 73 168 1.0 1.0 0.00 0.00 0.00 60 1016.1
20260508171820 74 190 1.0 1.0 0.00 0.00 0.00 59 1016.0
20260508171316 74 207 1.0 2.0 0.00 0.00 0.00 57 1016.1
20260508170813 74 174 1.0 1.0 0.00 0.00 0.00 58 1016.2
20260508170311 74 194 1.0 2.0 0.00 0.00 0.00 60 1015.9
20260508165808 73 186 0.0 1.0 0.00 0.00 0.00 59 1015.9
20260508165306 73 191 1.0 1.0 0.00 0.00 0.00 60 1015.8
20260508164801 73 202 1.0 2.0 0.00 0.00 0.00 58 1016.4
20260508164257 73 181 1.0 2.0 0.00 0.00 0.00 58 1016.3
20260508163755 74 222 1.0 1.0 0.00 0.00 0.00 56 1016.3
20260508163254 73 175 1.0 2.0 0.00 0.00 0.00 57 1016.3
20260508162748 73 169 0.0 0.0 0.00 0.00 0.00 59 1016.4
20260508162246 73 189 1.0 1.0 0.00 0.00 0.00 57 1016.4
20260508161743 72 187 1.0 2.0 0.00 0.00 0.00 58 1016.5
20260508161240 72 193 0.0 1.0 0.00 0.00 0.00 59 1016.7
20260508160738 72 218 1.0 2.0 0.00 0.00 0.00 58 1016.7
20260508160237 71 190 0.0 0.0 0.00 0.00 0.00 60 1016.7
20260508155732 71 183 1.0 1.0 0.00 0.00 0.00 59 1017.0
20260508155229 71 180 0.0 0.0 0.00 0.00 0.00 60 1017.0
20260508154726 71 175 1.0 1.0 0.00 0.00 0.00 64 1017.2
20260508154223 70 198 1.0 1.0 0.00 0.00 0.00 62 1017.0
20260508153720 71 186 1.0 2.0 0.00 0.00 0.00 61 1017.1
20260508153217 70 178 0.0 0.0 0.00 0.00 0.00 63 1017.0
20260508152714 70 188 1.0 1.0 0.00 0.00 0.00 63 1017.0
20260508152209 69 188 3.0 3.0 0.00 0.00 0.00 63 1016.7
20260508151706 69 176 0.0 0.0 0.00 0.00 0.00 65 1017.0
20260508151203 69 179 0.0 2.0 0.00 0.00 0.00 63 1017.0
20260508150659 69 181 0.0 1.0 0.00 0.00 0.00 64 1016.9